AEN3LC EDDS-EDDH

Flight info

Callsign AEN3LC
Flight time 0h 50m
Altitude 37000
Route OKIBA4B OKIBA N851 RIMKI Z99 LOHRE DCT MASEK DCT ELNAT P605 NOLGO NOLGO6A
Aircraft A320/M-SDE3FGHIRWY/LB1

Departure

Time 2026-05-08 06:44
Airport Stuttgart Airport (EDDS)

Arrival

Time 2026-05-08 07:35
Airport Hamburg Helmut Schmidt Airport (EDDH)
Time Latitude Longitude Altitude Speed Heading
2026-05-08 06:21 48.68910 9.19517 1265 ft 0 kts 343°
2026-05-08 06:39 48.68908 9.19517 1257 ft 2 kts 343°
2026-05-08 06:39 48.68892 9.19525 1266 ft 2 kts 343°
2026-05-08 06:39 48.68875 9.19532 1266 ft 2 kts 343°
2026-05-08 06:39 48.68858 9.19538 1263 ft 3 kts
2026-05-08 06:40 48.68841 9.19531 1260 ft 2 kts 36°
2026-05-08 06:40 48.68828 9.19512 1266 ft 3 kts 69°
2026-05-08 06:40 48.68827 9.19508 1266 ft 0 kts 72°
2026-05-08 06:41 48.68832 9.19530 1261 ft 6 kts 72°
2026-05-08 06:42 48.68853 9.19626 1260 ft 13 kts 72°
2026-05-08 06:42 48.68881 9.19771 1261 ft 16 kts 74°
2026-05-08 06:42 48.68834 9.19907 1260 ft 18 kts 153°
2026-05-08 06:42 48.68717 9.19972 1261 ft 15 kts 163°
2026-05-08 06:43 48.68655 9.19999 1261 ft 9 kts 163°
2026-05-08 06:43 48.68605 9.20071 1268 ft 12 kts 114°
2026-05-08 06:43 48.68611 9.20210 1259 ft 15 kts 74°
2026-05-08 06:43 48.68666 9.20495 1264 ft 58 kts 74°
2026-05-08 06:44 48.68842 9.21431 1262 ft 124 kts 74°
2026-05-08 06:44 48.69122 9.22940 1286 ft 171 kts 75°
2026-05-08 06:44 48.69425 9.24651 2064 ft 166 kts 75°
2026-05-08 06:44 48.69735 9.26348 2657 ft 178 kts 75°
2026-05-08 06:45 48.70099 9.28249 3073 ft 196 kts 74°
2026-05-08 06:45 48.70509 9.30298 3505 ft 214 kts 73°
2026-05-08 06:45 48.70954 9.32585 3937 ft 238 kts 75°
2026-05-08 06:45 48.71429 9.35119 4428 ft 260 kts 75°
2026-05-08 06:46 48.71928 9.37812 5254 ft 269 kts 74°
2026-05-08 06:46 48.72443 9.40574 6136 ft 276 kts 74°
2026-05-08 06:46 48.72977 9.43395 6973 ft 282 kts 73°
2026-05-08 06:46 48.73527 9.46279 7847 ft 287 kts 73°
2026-05-08 06:47 48.74365 9.49033 8703 ft 291 kts 53°
2026-05-08 06:47 48.75812 9.51162 9568 ft 293 kts 31°
2026-05-08 06:47 48.77666 9.52339 10368 ft 296 kts 10°
2026-05-08 06:47 48.79782 9.52482 10693 ft 316 kts 353°
2026-05-08 06:48 48.82032 9.52209 11188 ft 330 kts 353°
2026-05-08 06:48 48.84341 9.51923 11946 ft 335 kts 353°
2026-05-08 06:48 48.86677 9.51644 12741 ft 339 kts 354°
2026-05-08 06:48 48.89044 9.51370 13531 ft 343 kts 354°
2026-05-08 06:49 48.91436 9.51100 14265 ft 347 kts 354°
2026-05-08 06:49 48.93856 9.50809 14947 ft 349 kts 351°
2026-05-08 06:49 48.96229 9.50015 15613 ft 351 kts 340°
2026-05-08 06:49 48.98483 9.48550 16297 ft 353 kts 332°
2026-05-08 06:50 49.00671 9.46936 16978 ft 356 kts 332°
2026-05-08 06:50 49.02937 9.45270 17667 ft 359 kts 332°
2026-05-08 06:50 49.05172 9.43630 18334 ft 362 kts 332°
2026-05-08 06:50 49.07452 9.41958 18914 ft 365 kts 332°
2026-05-08 06:51 49.09750 9.40271 19491 ft 368 kts 332°
2026-05-08 06:51 49.12071 9.38564 20054 ft 371 kts 332°
2026-05-08 06:51 49.14407 9.36840 20635 ft 374 kts 332°
2026-05-08 06:51 49.16759 9.35100 21200 ft 377 kts 332°
2026-05-08 06:52 49.19135 9.33348 21746 ft 381 kts 333°
2026-05-08 06:52 49.21655 9.32004 22275 ft 387 kts 344°
2026-05-08 06:52 49.24329 9.31376 22798 ft 393 kts 354°
2026-05-08 06:52 49.27075 9.31174 23328 ft 396 kts 354°
2026-05-08 06:53 49.29840 9.30965 23825 ft 399 kts 354°
2026-05-08 06:53 49.32625 9.30749 24256 ft 402 kts 354°
2026-05-08 06:53 49.35429 9.30599 24679 ft 406 kts 359°
2026-05-08 06:53 49.38260 9.30935 25094 ft 410 kts
2026-05-08 06:54 49.41072 9.31350 25506 ft 412 kts
2026-05-08 06:54 49.43944 9.31777 25918 ft 415 kts
2026-05-08 06:54 49.46830 9.32207 26327 ft 418 kts
2026-05-08 06:54 49.49731 9.32640 26738 ft 420 kts
2026-05-08 06:55 49.52650 9.33073 27140 ft 423 kts
2026-05-08 06:55 49.55590 9.33509 27535 ft 425 kts
2026-05-08 06:55 49.58546 9.33949 27926 ft 428 kts
2026-05-08 06:55 49.61522 9.34396 28313 ft 430 kts
2026-05-08 06:56 49.64516 9.34842 28691 ft 433 kts
2026-05-08 06:56 49.67482 9.35283 29065 ft 435 kts
2026-05-08 06:56 49.70508 9.35733 29431 ft 438 kts
2026-05-08 06:56 49.73552 9.36188 29804 ft 440 kts
2026-05-08 06:57 49.76586 9.37020 30151 ft 446 kts 11°
2026-05-08 06:57 49.79610 9.38184 30453 ft 448 kts 11°
2026-05-08 06:57 49.82648 9.39354 30745 ft 450 kts 11°
2026-05-08 06:57 49.85694 9.40527 31026 ft 452 kts 11°
2026-05-08 06:58 49.88757 9.41705 31303 ft 454 kts 11°
2026-05-08 06:58 49.91830 9.42888 31585 ft 456 kts 11°
2026-05-08 06:58 49.94914 9.44080 31949 ft 456 kts 11°
2026-05-08 06:58 49.97987 9.45266 32349 ft 455 kts 11°
2026-05-08 06:59 50.01014 9.46435 32735 ft 454 kts 11°
2026-05-08 06:59 50.04075 9.47624 33141 ft 453 kts 11°
2026-05-08 06:59 50.07145 9.48684 33524 ft 450 kts
2026-05-08 06:59 50.10242 9.49246 33915 ft 448 kts
2026-05-08 07:00 50.13344 9.49760 34276 ft 447 kts
2026-05-08 07:00 50.16441 9.50271 34584 ft 447 kts
2026-05-08 07:00 50.19534 9.50785 34864 ft 448 kts
2026-05-08 07:00 50.21591 9.51129 35043 ft 448 kts
2026-05-08 07:01 50.24698 9.51651 35317 ft 448 kts
2026-05-08 07:01 50.27798 9.52173 35568 ft 449 kts
2026-05-08 07:01 50.30900 9.52695 35819 ft 449 kts
2026-05-08 07:01 50.35020 9.53395 36154 ft 449 kts
2026-05-08 07:02 50.38126 9.53921 36399 ft 450 kts
2026-05-08 07:02 50.40230 9.54277 36565 ft 450 kts
2026-05-08 07:02 50.43342 9.54802 36798 ft 450 kts
2026-05-08 07:02 50.46465 9.55328 37024 ft 451 kts
2026-05-08 07:03 50.52662 9.56377 37130 ft 449 kts
2026-05-08 07:03 50.58868 9.57431 37134 ft 448 kts
2026-05-08 07:04 50.65066 9.58488 37138 ft 448 kts
2026-05-08 07:04 50.71258 9.59545 37139 ft 448 kts
2026-05-08 07:05 50.77449 9.60655 37144 ft 448 kts
2026-05-08 07:05 50.83601 9.61872 37149 ft 448 kts
2026-05-08 07:06 50.89788 9.63099 37154 ft 448 kts
2026-05-08 07:06 50.95982 9.64307 37154 ft 448 kts
2026-05-08 07:07 51.02168 9.65517 37157 ft 448 kts
2026-05-08 07:07 51.08366 9.66734 37157 ft 448 kts
2026-05-08 07:08 51.14559 9.67945 37157 ft 448 kts
2026-05-08 07:08 51.20711 9.69150 37157 ft 448 kts
2026-05-08 07:09 51.26897 9.70238 37171 ft 447 kts
2026-05-08 07:09 51.33100 9.71189 37173 ft 447 kts
2026-05-08 07:10 51.39296 9.72153 37174 ft 447 kts
2026-05-08 07:10 51.45482 9.73150 37173 ft 447 kts
2026-05-08 07:11 51.51679 9.74222 37171 ft 447 kts
2026-05-08 07:11 51.57819 9.75412 37171 ft 447 kts
2026-05-08 07:12 51.60909 9.76023 37032 ft 448 kts
2026-05-08 07:12 51.63997 9.76627 36754 ft 446 kts
2026-05-08 07:12 51.67068 9.77217 36236 ft 443 kts
2026-05-08 07:12 51.70121 9.77794 35700 ft 440 kts
2026-05-08 07:13 51.73145 9.78368 35189 ft 437 kts
2026-05-08 07:13 51.76158 9.78944 34670 ft 434 kts
2026-05-08 07:13 51.79150 9.79516 34138 ft 432 kts
2026-05-08 07:13 51.82130 9.80088 33572 ft 429 kts
2026-05-08 07:14 51.85074 9.80653 33066 ft 424 kts
2026-05-08 07:14 51.87992 9.81211 32554 ft 420 kts
2026-05-08 07:14 51.90842 9.81756 32048 ft 417 kts
2026-05-08 07:14 51.93719 9.82308 31558 ft 413 kts
2026-05-08 07:15 51.96562 9.82858 31073 ft 410 kts
2026-05-08 07:15 51.99385 9.83410 30593 ft 406 kts
2026-05-08 07:15 52.02179 9.83957 30098 ft 403 kts
2026-05-08 07:15 52.04949 9.84498 29596 ft 399 kts
2026-05-08 07:16 52.07690 9.85035 29157 ft 393 kts
2026-05-08 07:16 52.10378 9.85211 28844 ft 381 kts 354°
2026-05-08 07:16 52.13045 9.85056 28577 ft 392 kts 355°
2026-05-08 07:16 52.15802 9.84897 28307 ft 410 kts 355°
2026-05-08 07:17 52.18679 9.84738 28036 ft 415 kts 355°
2026-05-08 07:17 52.21573 9.84583 27774 ft 416 kts 355°
2026-05-08 07:17 52.24464 9.84428 27510 ft 415 kts 355°
2026-05-08 07:17 52.27350 9.84272 27250 ft 414 kts 355°
2026-05-08 07:18 52.30226 9.84113 26802 ft 412 kts 355°
2026-05-08 07:18 52.33080 9.83952 26254 ft 409 kts 355°
2026-05-08 07:18 52.35917 9.83789 25712 ft 406 kts 355°
2026-05-08 07:18 52.38731 9.83626 25172 ft 403 kts 355°
2026-05-08 07:19 52.41526 9.83465 24640 ft 400 kts 355°
2026-05-08 07:19 52.44268 9.83312 24117 ft 398 kts 356°
2026-05-08 07:19 52.47030 9.83162 23549 ft 396 kts 356°
2026-05-08 07:19 52.49770 9.83011 23003 ft 392 kts 356°
2026-05-08 07:20 52.52485 9.82855 22484 ft 389 kts 356°
2026-05-08 07:20 52.55183 9.82699 21965 ft 386 kts 356°
2026-05-08 07:20 52.57861 9.82548 21453 ft 383 kts 356°
2026-05-08 07:20 52.60519 9.82399 20943 ft 380 kts 356°
2026-05-08 07:21 52.63154 9.82250 20439 ft 378 kts 356°
2026-05-08 07:21 52.65773 9.82099 19936 ft 376 kts 356°
2026-05-08 07:21 52.68380 9.81951 19435 ft 374 kts 356°
2026-05-08 07:21 52.70978 9.81802 18935 ft 373 kts 356°
2026-05-08 07:22 52.73555 9.81651 18432 ft 375 kts 356°
2026-05-08 07:22 52.76161 9.81499 17892 ft 374 kts 356°
2026-05-08 07:22 52.78752 9.81351 17392 ft 372 kts 356°
2026-05-08 07:22 52.81328 9.81202 16899 ft 369 kts 357°
2026-05-08 07:23 52.83891 9.81054 16410 ft 367 kts 357°
2026-05-08 07:23 52.86440 9.80908 15923 ft 365 kts 357°
2026-05-08 07:23 52.88968 9.80761 15442 ft 363 kts 357°
2026-05-08 07:23 52.91453 9.80616 14963 ft 361 kts 357°
2026-05-08 07:24 52.93953 9.80470 14478 ft 359 kts 358°
2026-05-08 07:24 52.96443 9.80324 14008 ft 357 kts 358°
2026-05-08 07:24 52.98920 9.80184 13491 ft 354 kts 358°
2026-05-08 07:24 53.01369 9.80045 13018 ft 350 kts 358°
2026-05-08 07:25 53.03796 9.79905 12553 ft 347 kts 358°
2026-05-08 07:25 53.06192 9.79767 12096 ft 344 kts 358°
2026-05-08 07:25 53.10940 9.79494 11184 ft 339 kts 358°
2026-05-08 07:26 53.13287 9.79354 10740 ft 337 kts 358°
2026-05-08 07:26 53.15636 9.79210 10103 ft 339 kts 358°
2026-05-08 07:26 53.17987 9.79068 9591 ft 336 kts 358°
2026-05-08 07:26 53.20273 9.78933 9153 ft 331 kts 359°
2026-05-08 07:27 53.22561 9.78798 8725 ft 327 kts 359°
2026-05-08 07:27 53.24824 9.78663 8288 ft 324 kts 359°
2026-05-08 07:27 53.27069 9.78528 7858 ft 321 kts 359°
2026-05-08 07:27 53.29292 9.78397 7440 ft 319 kts 359°
2026-05-08 07:28 53.31500 9.78270 7017 ft 316 kts 360°
2026-05-08 07:28 53.33698 9.78146 6594 ft 314 kts
2026-05-08 07:28 53.35846 9.78024 6162 ft 312 kts
2026-05-08 07:28 53.38008 9.77896 5746 ft 309 kts
2026-05-08 07:29 53.40149 9.77767 5341 ft 306 kts
2026-05-08 07:29 53.42229 9.77636 4937 ft 290 kts
2026-05-08 07:29 53.44184 9.77512 4537 ft 274 kts
2026-05-08 07:29 53.46030 9.77395 4197 ft 257 kts
2026-05-08 07:30 53.47783 9.77284 3864 ft 245 kts
2026-05-08 07:30 53.49444 9.77181 3541 ft 233 kts
2026-05-08 07:30 53.51026 9.77241 3220 ft 220 kts 16°
2026-05-08 07:30 53.52369 9.78040 2976 ft 199 kts 35°
2026-05-08 07:31 53.53393 9.79406 2778 ft 180 kts 53°
2026-05-08 07:31 53.54172 9.80946 2532 ft 164 kts 54°
2026-05-08 07:31 53.54867 9.82342 2319 ft 147 kts 55°
2026-05-08 07:31 53.55493 9.83602 2110 ft 135 kts 56°
2026-05-08 07:32 53.56084 9.84799 1940 ft 130 kts 56°
2026-05-08 07:32 53.56663 9.85970 1751 ft 129 kts 55°
2026-05-08 07:32 53.57240 9.87125 1565 ft 129 kts 55°
2026-05-08 07:32 53.57817 9.88284 1353 ft 129 kts 55°
2026-05-08 07:33 53.58388 9.89441 1145 ft 127 kts 54°
2026-05-08 07:33 53.58954 9.90585 1038 ft 130 kts 54°
2026-05-08 07:33 53.59533 9.91747 870 ft 129 kts 52°
2026-05-08 07:33 53.60115 9.92921 644 ft 131 kts 52°
2026-05-08 07:34 53.60694 9.94085 439 ft 130 kts 52°
2026-05-08 07:34 53.61279 9.95254 315 ft 132 kts 54°
2026-05-08 07:34 53.61860 9.96437 124 ft 129 kts 53°
2026-05-08 07:34 53.62409 9.97573 41 ft 113 kts 52°
2026-05-08 07:35 53.62807 9.98359 43 ft 65 kts 50°
2026-05-08 07:35 53.63001 9.98750 45 ft 33 kts 50°
2026-05-08 07:35 53.63094 9.99088 46 ft 32 kts 90°
2026-05-08 07:35 53.63089 9.99353 47 ft 1 kts 79°
2026-05-08 07:36 53.63093 9.99375 47 ft 8 kts 73°
2026-05-08 07:36 53.63146 9.99511 46 ft 17 kts 53°
2026-05-08 07:36 53.63221 9.99670 48 ft 17 kts 46°
2026-05-08 07:37 53.63310 9.99826 48 ft 20 kts 50°
2026-05-08 07:37 53.63402 10.00009 48 ft 19 kts 50°
2026-05-08 07:37 53.63410 10.00192 47 ft 16 kts 101°
2026-05-08 07:37 53.63413 10.00322 48 ft 9 kts 85°
2026-05-08 07:38 53.63413 10.00333 48 ft 0 kts 85°
2026-05-08 07:46 53.63413 10.00332 49 ft 0 kts 85°